Location: Lake Zurich
(42.1970°N, 88.0930°W)
Time: 10:30:29
(UTC-05:00)

Daily predictions for brighter satellites

Satellite Brightness Start Highest point End
(mag) Time Altitude Azimuth Time Altitude Azimuth Time Altitude Azimuth
Okean 1 3.5 20:46:26 10° S 20:50:28 81° W 20:54:34 10° N
ATLAS 3B R/B 3.5 20:44:49 10° SW 20:51:53 60° NW 20:58:43 10° NNE
Resurs 01 Rocket 1.7 20:47:33 10° SSE 20:51:57 88° WSW 20:56:23 10° NNW
Cosmos 990 Rocket 4.3 20:47:59 10° NNW 20:53:08 54° ENE 20:58:15 10° SE
Envisat 4.5 20:48:35 10° SSW 20:53:16 37° W 20:57:59 10° NNW
H-2A R/B 3.2 20:49:12 10° ESE 20:53:16 26° ENE 20:57:26 10° N
Meteor 2-4 Rocket 4.3 20:49:25 10° SSE 20:54:18 35° E 20:59:20 10° NNE
Cosmos 2208 Rocket 4.1 20:50:24 10° SSW 20:55:35 82° WNW 21:00:48 10° NNE
Lacrosse 5 rocket 2.8 20:54:05 10° NNW 20:57:59 30° NNE 21:01:40 10° E
Aureole 2 Rocket 3.6 20:56:08 10° N 20:58:29 21° ENE 21:00:42 10° ESE
ARGOS 3.8 20:57:00 10° SE 21:02:01 41° ENE 21:07:04 10° N
Cosmos 1939 Rocket 4.0 21:00:20 10° S 21:04:17 45° W 21:08:17 10° NNW
NOAA 11 4.3 21:00:26 10° SSE 21:05:54 89° WSW 21:11:24 10° NNW
Cosmos 2322 Rocket 2.2 21:00:27 10° NNW 21:06:06 82° ENE 21:11:43 10° SSE
Cosmos 1242 Rocket 2.6 21:07:08 10° N 21:10:48 85° W 21:14:23 10° S
SL-16 R/B 2.3 21:10:36 10° NNW 21:16:17 79° WSW 21:21:56 10° SSE
CZ-4B DEB 4.4 21:12:55 10° SSE 21:16:23 74° ENE 21:19:52 10° N
Cosmos 2150 Rocket 4.1 21:15:52 10° NNW 21:21:14 68° ENE 21:25:55 13° SSE
Cosmos 1340 Rocket 3.1 21:19:04 10° S 21:22:58 48° E 21:26:55 10° NNE
BREEZE-M R/B 3.9 21:21:49 10° W 21:25:52 39° NNW 21:28:26 10° NE
Cosmos 540 Rocket 3.9 21:23:50 10° S 21:28:36 39° ESE 21:33:25 10° NE
MetOp-B 4.3 21:23:56 13° SSE 21:28:40 59° ENE 21:33:56 10° N
Spot 2 Rocket 4.3 21:26:50 10° S 21:31:43 50° W 21:36:38 10° NNW
Cosmos 2034 Rocket 4.4 21:29:18 12° SSE 21:34:41 43° E 21:40:27 10° NNE
Meteor 1-13 Rocket 4.4 21:29:22 10° S 21:35:18 88° W 21:41:18 10° N
Cosmos 1937 Rocket 3.8 21:31:36 10° NNW 21:36:41 62° WSW 21:41:33 11° S
Cosmos 1464 Rocket 4.1 21:31:09 10° S 21:37:25 64° E 21:43:43 10° NNE
Cosmos 1763 Rocket 3.9 21:34:16 10° SSW 21:39:32 67° WNW 21:44:48 10° NNE
SPOT 5 3.7 21:37:55 18° ESE 21:40:31 33° ENE 21:44:38 10° N
USA 245 3.8 21:38:32 21° SE 21:40:41 45° ENE 21:45:00 10° N
Cosmos 1455 Rocket 3.0 21:36:23 10° N 21:40:47 85° E 21:44:20 15° S
Terra 3.6 21:38:20 13° E 21:40:53 19° ENE 21:44:10 10° NNE
Cosmos 2298 Rocket 4.2 21:37:11 10° NNW 21:42:29 71° WSW 21:46:59 14° S
Cosmos 841 Rocket 3.6 21:40:48 10° SSW 21:46:03 83° WNW 21:51:22 10° NNE
Meteor 1-15 Rocket 4.4 21:43:09 10° N 21:48:48 58° ENE 21:52:34 21° SSE
Abrixas rocket 4.0 21:47:43 10° W 21:50:42 32° NNW 21:53:40 10° NE
Helios 1A 3.5 21:51:27 24° SE 21:53:33 45° ENE 21:57:33 10° N
Okean 2 4.0 21:52:12 25° SE 21:53:59 38° E 21:57:51 10° NNE
USA 32 4.2 21:49:27 10° N 21:54:42 74° W 21:59:24 13° S
Cosmos 2360 Rocket 2.2 21:49:30 10° NNW 21:55:11 89° ENE 21:58:58 22° SSE
CZ-2C R/B 4.5 21:52:19 10° ENE 21:55:12 14° E 21:56:06 14° E
Cosmos 1891 Rocket 4.5 21:49:12 10° S 21:55:23 78° E 22:01:46 10° N
Cosmos 372 Rocket 4.3 21:50:37 10° N 21:55:39 53° ENE 21:58:30 24° SE
BREEZE M DEB (TANK) 3.2 21:47:12 10° WNW 21:56:42 61° SW 21:58:38 27° SSE
ISS -0.9 21:55:21 10° NW 21:57:41 18° N 22:00:00 10° NE
Cosmos 2219 Rocket 3.4 21:53:31 10° N 21:58:23 30° NE 22:01:38 17° ESE
Tiangong 2 1.1 21:55:27 10° W 21:58:36 78° N 22:00:15 25° E
USA 234 3.4 21:52:11 10° NE 21:58:46 81° NW 22:05:20 10° SW
Shenzhou-11 Module 2.5 21:57:56 10° W 22:00:44 39° SSW 22:01:05 37° S
Cosmos 1356 Rocket 3.9 22:05:19 30° SE 22:06:51 43° E 22:10:56 10° NNE
Cosmos 1544 Rocket 4.4 22:03:57 10° NNW 22:08:13 47° W 22:11:44 14° SSW
ERS-1 Rocket 3.1 22:07:42 22° S 22:11:01 75° WSW 22:16:05 10° NNW
Helios 1B rocket 2.6 22:14:00 10° NNE 22:18:04 52° E 22:19:15 38° SSE
SJ 16-02 1.3 22:14:05 10° NNW 22:18:32 81° WSW 22:20:27 34° S
CZ-2C R/B 4.1 22:16:09 24° ESE 22:18:33 35° ENE 22:23:37 10° N
Iridium 90 4.2 22:19:03 48° NW 22:19:03 48° NW 22:20:50 10° N
Cosmos 2333 Rocket 2.9 22:19:38 10° NNW 22:25:03 42° ENE 22:27:41 26° ESE
Cosmos 1536 Rocket 4.3 22:21:53 13° SSW 22:25:45 51° W 22:30:08 10° N
CENTAUR R/B 3.4 22:21:20 10° WSW 22:27:14 53° NW 22:34:03 10° NNE
Okean 1-7 Rocket 4.2 22:27:08 37° ESE 22:28:03 41° E 22:32:20 10° NNE
COSMOS 2428 2.8 22:22:27 10° NNW 22:28:08 69° ENE 22:30:38 34° SE
SPOT 1/Viking Rocket 3.5 22:26:20 31° S 22:28:53 85° WSW 22:34:05 10° NNW
IGS 5A 3.6 22:28:32 43° SE 22:29:37 58° ENE 22:33:43 10° N
CZ-4C R/B 3.0 22:24:03 10° NNW 22:31:14 71° NE 22:35:47 28° SE
Meteor 1-29 3.1 22:27:49 10° NNE 22:31:15 53° E 22:31:16 53° ESE
H-2A R/B 3.1 22:29:02 16° SSW 22:32:30 37° W 22:37:11 10° NNW
Cosmos 1125 Rocket 3.5 22:30:37 10° NNW 22:35:52 75° WSW 22:38:03 36° S
Lacrosse 5 rocket 1.8 22:33:14 10° WNW 22:37:21 45° SW 22:38:05 40° SSW
Cosmos 1092 Rocket 4.0 22:36:37 10° N 22:43:00 81° E 22:45:54 35° SSE
Cosmos 2297 Rocket 3.4 22:44:24 24° E 22:44:24 24° E 22:48:39 10° NE
Nadezhda 4 Rocket 4.2 22:38:14 10° NNW 22:44:30 69° W 22:48:05 27° S
Cosmos 2227 Rocket 3.1 22:47:43 29° ESE 22:47:47 29° ESE 22:52:34 10° NE
Cosmos 2058 Rocket 4.0 22:46:08 10° N 22:50:17 34° ENE 22:50:47 33° E
Cosmos 2322 4.4 22:44:58 10° NW 22:50:24 45° WSW 22:52:56 28° SSW
Cosmos 2237 Rocket 3.0 22:49:01 10° N 22:54:23 40° ENE 22:56:28 30° ESE
CARTOSAT-1 3.6 22:56:13 52° SSW 22:57:07 70° WSW 23:01:26 10° NNW
Landsat 7 4.4 22:57:52 36° SSW 22:59:28 51° W 23:04:07 10° NNW
NOSS 0 Rocket 4.1 22:54:14 10° NNW 23:00:27 64° ENE 23:02:42 40° SE
Cosmos 1066 Rocket 4.3 22:58:35 29° SSW 23:01:18 68° WNW 23:06:46 10° N
Cosmos 773 Rocket 4.4 23:02:46 41° ESE 23:02:51 41° ESE 23:07:39 10° NE
Cosmos 1025 Rocket 4.1 23:04:19 25° SW 23:06:20 40° WNW 23:10:29 10° N
SAR-Lupe-4 4.4 23:09:37 40° NE 23:09:37 40° NE 23:12:35 10° N
Cosmos 2026 Rocket 3.8 23:05:08 10° N 23:11:20 84° E 23:13:15 47° SSE
Cosmos 1544 3.8 23:11:59 10° NNW 23:15:33 45° W 23:15:35 45° W
Cosmos 2279 Rocket 4.0 23:14:02 47° SSE 23:15:46 66° E 23:21:56 10° NNE
Cosmos 1606 Rocket 3.6 23:11:20 10° NNW 23:15:46 72° W 23:16:17 64° SW
Terra 2.3 23:17:13 42° SW 23:18:14 50° W 23:22:54 10° NNW
Meteor 1-21 4.2 23:17:13 54° SSE 23:18:21 69° E 23:23:58 10° NNE
SPOT 5 4.4 23:17:09 20° WSW 23:18:40 24° W 23:22:21 10° NW
Cosmos 2219 3.5 23:16:32 25° SW 23:19:58 67° WNW 23:25:43 10° NNE
Cosmos 1655 Rocket 4.1 23:14:08 10° N 23:20:30 66° E 23:22:14 47° SE
Cosmos 1766 3.3 23:17:58 10° NNW 23:21:51 73° W 23:21:51 73° W
Meteor 1-22 Rocket 4.2 23:19:23 10° NNW 23:24:42 68° W 23:25:51 52° SSW
Abrixas rocket 4.2 23:24:51 10° NW 23:27:40 27° N 23:28:17 25° NNE
Iridium 4 Rocket 3.9 23:29:51 51° SE 23:30:47 58° E 23:36:35 10° N
ISS -1.0 23:32:46 10° NW 23:35:04 17° N 23:36:53 12° NE
Tiangong 2 4.0 23:32:13 10° W 23:32:27 12° W 23:32:27 12° W
Cosmos 1733 4.2 23:31:45 10° N 23:34:45 39° NE 23:34:45 39° NE
CZ-2C R/B 2.7 23:30:27 10° N 23:36:05 79° WNW 23:37:37 50° SSW
Mayak 0.4 23:34:23 10° NE 23:37:00 25° ENE 23:37:00 25° ENE
Cosmos 2360 Rocket 4.5 23:36:10 10° WNW 23:38:18 12° W 23:40:27 10° WSW
Cosmos 2084 Rocket 3.7 23:36:01 10° NNW 23:39:33 59° NNE 23:39:33 59° NNE
Cosmos 1818 3.8 23:42:14 51° ESE 23:42:14 51° ESE 23:47:09 10° NE
Cosmos 1428 Rocket 4.5 23:35:50 10° N 23:41:56 74° W 23:43:29 52° SSW
Cosmos 2219 Rocket 2.8 23:37:13 10° NW 23:42:27 42° WSW 23:43:21 39° SW
Cosmos 1758 3.7 23:39:30 10° N 23:43:02 60° NNE 23:43:02 60° NNE
H-2A R/B 3.6 23:43:33 25° ENE 23:43:41 25° ENE 23:47:12 10° NNE
Spot 4 3.9 23:48:10 65° SW 23:48:26 67° WSW 23:53:17 10° NNW
Intercosmos 25 4.2 23:52:28 45° W 23:52:28 45° W 23:55:50 10° N
CZ-4 R/B 3.8 23:49:14 10° NNE 23:54:16 78° ESE 23:54:22 77° ESE
Cosmos 1842 4.3 23:56:15 40° WNW 23:56:15 40° WNW 23:59:45 10° N
